| time (UTC) | temp F | wind direction | speed MPH | gust MPH | rain 1hr in | rain 24hr in | rain mn in | humidity % | barometer mb |
| 20260906185728 | 97 | 247 | 2.0 | 2.0 | 0.00 | 0.00 | 0.00 | 49 | 1010.9 |
| 20260906185227 | 97 | 228 | 0.0 | 1.0 | 0.00 | 0.00 | 0.00 | 49 | 1011.2 |
| 20260906184722 | 96 | 231 | 1.0 | 2.0 | 0.00 | 0.00 | 0.00 | 50 | 1011.1 |
| 20260906184217 | 96 | 282 | 2.0 | 2.0 | 0.00 | 0.00 | 0.00 | 51 | 1011.2 |
| 20260906183713 | 95 | 227 | 0.0 | 1.0 | 0.00 | 0.00 | 0.00 | 53 | 1011.3 |
| 20260906183209 | 96 | 231 | 1.0 | 2.0 | 0.00 | 0.00 | 0.00 | 53 | 1011.2 |
| 20260906182709 | 96 | 220 | 0.0 | 1.0 | 0.00 | 0.00 | 0.00 | 53 | 1011.4 |
| 20260906182205 | 96 | 229 | 1.0 | 1.0 | 0.00 | 0.00 | 0.00 | 53 | 1011.5 |
| 20260906181659 | 96 | 240 | 1.0 | 2.0 | 0.00 | 0.00 | 0.00 | 53 | 1011.5 |
| 20260906181155 | 96 | 233 | 0.0 | 2.0 | 0.00 | 0.00 | 0.00 | 53 | 1011.4 |
| 20260906180650 | 96 | 250 | 2.0 | 2.0 | 0.00 | 0.00 | 0.00 | 52 | 1011.6 |
| 20260906180145 | 95 | 231 | 0.0 | 1.0 | 0.00 | 0.00 | 0.00 | 53 | 1011.7 |
| 20260906175643 | 96 | 279 | 3.0 | 3.0 | 0.00 | 0.00 | 0.00 | 52 | 1011.8 |
| 20260906175138 | 96 | 248 | 1.0 | 2.0 | 0.00 | 0.00 | 0.00 | 53 | 1012.0 |
| 20260906174636 | 95 | 227 | 0.0 | 1.0 | 0.00 | 0.00 | 0.00 | 54 | 1012.1 |
| 20260906174132 | 95 | 218 | 0.0 | 2.0 | 0.00 | 0.00 | 0.00 | 54 | 1012.1 |
| 20260906173627 | 95 | 154 | 2.0 | 2.0 | 0.00 | 0.00 | 0.00 | 53 | 1012.3 |
| 20260906173122 | 95 | 258 | 1.0 | 2.0 | 0.00 | 0.00 | 0.00 | 54 | 1012.1 |
| 20260906172621 | 95 | 253 | 1.0 | 2.0 | 0.00 | 0.00 | 0.00 | 54 | 1012.4 |
| 20260906172117 | 94 | 236 | 1.0 | 2.0 | 0.00 | 0.00 | 0.00 | 56 | 1012.3 |
| 20260906171616 | 94 | 239 | 1.0 | 1.0 | 0.00 | 0.00 | 0.00 | 56 | 1012.3 |
| 20260906171113 | 94 | 228 | 1.0 | 2.0 | 0.00 | 0.00 | 0.00 | 56 | 1012.2 |
| 20260906170609 | 93 | 235 | 1.0 | 2.0 | 0.00 | 0.00 | 0.00 | 57 | 1012.3 |
| 20260906170108 | 93 | 224 | 1.0 | 2.0 | 0.00 | 0.00 | 0.00 | 58 | 1012.4 |
| 20260906165604 | 93 | 221 | 0.0 | 1.0 | 0.00 | 0.00 | 0.00 | 58 | 1012.4 |
| 20260906165059 | 92 | 226 | 1.0 | 2.0 | 0.00 | 0.00 | 0.00 | 59 | 1012.9 |
| 20260906164558 | 92 | 228 | 1.0 | 1.0 | 0.00 | 0.00 | 0.00 | 60 | 1012.8 |
| 20260906164054 | 92 | 239 | 1.0 | 2.0 | 0.00 | 0.00 | 0.00 | 59 | 1012.9 |
| 20260906163549 | 91 | 234 | 1.0 | 1.0 | 0.00 | 0.00 | 0.00 | 61 | 1012.8 |
| 20260906163045 | 91 | 225 | 1.0 | 1.0 | 0.00 | 0.00 | 0.00 | 61 | 1012.9 |
| 20260906162542 | 91 | 234 | 1.0 | 2.0 | 0.00 | 0.00 | 0.00 | 61 | 1013.1 |
| 20260906162037 | 91 | 240 | 1.0 | 2.0 | 0.00 | 0.00 | 0.00 | 60 | 1013.1 |
| 20260906161532 | 91 | 218 | 0.0 | 2.0 | 0.00 | 0.00 | 0.00 | 61 | 1013.1 |
| 20260906161031 | 90 | 224 | 0.0 | 1.0 | 0.00 | 0.00 | 0.00 | 63 | 1013.1 |
| 20260906160530 | 89 | 225 | 0.0 | 2.0 | 0.00 | 0.00 | 0.00 | 64 | 1013.1 |
| 20260906160029 | 89 | 223 | 0.0 | 2.0 | 0.00 | 0.00 | 0.00 | 64 | 1013.2 |
| 20260906155526 | 89 | 228 | 0.0 | 1.0 | 0.00 | 0.00 | 0.00 | 64 | 1013.2 |
| 20260906155023 | 89 | 227 | 0.0 | 2.0 | 0.00 | 0.00 | 0.00 | 65 | 1013.2 |
| 20260906154518 | 89 | 221 | 0.0 | 1.0 | 0.00 | 0.00 | 0.00 | 65 | 1013.1 |
| 20260906154016 | 89 | 213 | 0.0 | 1.0 | 0.00 | 0.00 | 0.00 | 65 | 1013.3 |
| 20260906153516 | 89 | 233 | 0.0 | 1.0 | 0.00 | 0.00 | 0.00 | 67 | 1013.2 |
| 20260906153011 | 89 | 215 | 0.0 | 1.0 | 0.00 | 0.00 | 0.00 | 67 | 1013.2 |
| 20260906152505 | 88 | 213 | 0.0 | 1.0 | 0.00 | 0.00 | 0.00 | 70 | 1013.2 |
| 20260906152004 | 87 | 221 | 1.0 | 1.0 | 0.00 | 0.00 | 0.00 | 68 | 1013.2 |
| 20260906151500 | 86 | 209 | 1.0 | 2.0 | 0.00 | 0.00 | 0.00 | 69 | 1013.2 |
| 20260906150955 | 86 | 218 | 1.0 | 1.0 | 0.00 | 0.00 | 0.00 | 73 | 1013.2 |
| 20260906150450 | 85 | 184 | 2.0 | 3.0 | 0.00 | 0.00 | 0.00 | 75 | 1013.1 |
| 20260906145950 | 85 | 220 | 1.0 | 2.0 | 0.00 | 0.00 | 0.00 | 75 | 1013.3 |
| 20260906145449 | 84 | 209 | 1.0 | 1.0 | 0.00 | 0.00 | 0.00 | 76 | 1013.4 |
| 20260906144944 | 83 | 144 | 3.0 | 3.0 | 0.00 | 0.00 | 0.00 | 78 | 1013.4 |
| 20260906144439 | 83 | 194 | 1.0 | 5.0 | 0.00 | 0.00 | 0.00 | 80 | 1013.3 |
| 20260906143934 | 82 | 189 | 4.0 | 5.0 | 0.00 | 0.00 | 0.00 | 80 | 1013.2 |
| 20260906143430 | 82 | 167 | 1.0 | 2.0 | 0.00 | 0.00 | 0.00 | 81 | 1013.3 |
| 20260906142925 | 82 | 210 | 1.0 | 2.0 | 0.00 | 0.00 | 0.00 | 82 | 1013.4 |
| 20260906142425 | 81 | 213 | 1.0 | 2.0 | 0.00 | 0.00 | 0.00 | 82 | 1013.6 |
| 20260906141920 | 81 | 207 | 0.0 | 2.0 | 0.00 | 0.00 | 0.00 | 82 | 1013.7 |
| 20260906141414 | 81 | 214 | 0.0 | 1.0 | 0.00 | 0.00 | 0.00 | 83 | 1013.6 |
| 20260906140908 | 81 | 219 | 0.0 | 3.0 | 0.00 | 0.00 | 0.00 | 83 | 1013.5 |
| 20260906140403 | 81 | 219 | 0.0 | 1.0 | 0.00 | 0.00 | 0.00 | 83 | 1013.6 |
| 20260906135900 | 80 | 205 | 1.0 | 2.0 | 0.00 | 0.00 | 0.00 | 84 | 1013.5 |
| 20260906135354 | 80 | 195 | 2.0 | 3.0 | 0.00 | 0.00 | 0.00 | 85 | 1013.5 |
| 20260906134850 | 79 | 202 | 1.0 | 2.0 | 0.00 | 0.00 | 0.00 | 86 | 1013.7 |
| 20260906134345 | 79 | 193 | 1.0 | 2.0 | 0.00 | 0.00 | 0.00 | 86 | 1013.7 |
| 20260906133841 | 78 | 217 | 1.0 | 3.0 | 0.00 | 0.00 | 0.00 | 87 | 1013.8 |
| 20260906133336 | 78 | 215 | 0.0 | 2.0 | 0.00 | 0.00 | 0.00 | 89 | 1013.6 |
| 20260906132831 | 78 | 206 | 1.0 | 1.0 | 0.00 | 0.00 | 0.00 | 89 | 1013.8 |
| 20260906132327 | 78 | 208 | 0.0 | 0.0 | 0.00 | 0.00 | 0.00 | 89 | 1013.8 |
| 20260906131822 | 77 | 221 | 0.0 | 1.0 | 0.00 | 0.00 | 0.00 | 89 | 1013.8 |
| 20260906131317 | 77 | 220 | 0.0 | 1.0 | 0.00 | 0.00 | 0.00 | 91 | 1013.9 |
| 20260906130813 | 76 | 212 | 0.0 | 1.0 | 0.00 | 0.00 | 0.00 | 93 | 1013.8 |
| 20260906130313 | 75 | 220 | 0.0 | 0.0 | 0.00 | 0.00 | 0.00 | 93 | 1013.8 |
| 20260906125812 | 75 | 200 | 0.0 | 1.0 | 0.00 | 0.00 | 0.00 | 94 | 1013.8 |
| 20260906125309 | 74 | 214 | 0.0 | 0.0 | 0.00 | 0.00 | 0.00 | 94 | 1013.7 |
| 20260906124804 | 74 | 221 | 0.0 | 0.0 | 0.00 | 0.00 | 0.00 | 96 | 1013.7 |
| 20260906124300 | 73 | 225 | 0.0 | 0.0 | 0.00 | 0.00 | 0.00 | 96 | 1013.8 |
| 20260906123759 | 73 | 220 | 0.0 | 0.0 | 0.00 | 0.00 | 0.00 | 96 | 1013.8 |
| 20260906123254 | 73 | 220 | 0.0 | 0.0 | 0.00 | 0.00 | 0.00 | 96 | 1013.6 |
| 20260906122754 | 73 | 221 | 0.0 | 1.0 | 0.00 | 0.00 | 0.00 | 96 | 1013.7 |
| 20260906122249 | 73 | 221 | 0.0 | 2.0 | 0.00 | 0.00 | 0.00 | 96 | 1013.7 |
| 20260906121746 | 73 | 202 | 1.0 | 1.0 | 0.00 | 0.00 | 0.00 | 96 | 1013.7 |
| 20260906121242 | 73 | 206 | 0.0 | 0.0 | 0.00 | 0.00 | 0.00 | 96 | 1013.5 |
| 20260906120737 | 73 | 223 | 0.0 | 0.0 | 0.00 | 0.00 | 0.00 | 96 | 1013.6 |
| 20260906120234 | 73 | 227 | 0.0 | 0.0 | 0.00 | 0.00 | 0.00 | 96 | 1013.5 |
| 20260906115729 | 73 | 225 | 0.0 | 0.0 | 0.00 | 0.00 | 0.00 | 95 | 1013.4 |
| 20260906115224 | 73 | 221 | 0.0 | 0.0 | 0.00 | 0.00 | 0.00 | 95 | 1013.4 |
| 20260906114723 | 74 | 205 | 0.0 | 0.0 | 0.00 | 0.00 | 0.00 | 95 | 1013.2 |
| 20260906114218 | 74 | 220 | 0.0 | 0.0 | 0.00 | 0.00 | 0.00 | 95 | 1013.3 |
| 20260906113714 | 74 | 218 | 1.0 | 2.0 | 0.00 | 0.00 | 0.00 | 95 | 1013.2 |
| 20260906113213 | 74 | 214 | 0.0 | 2.0 | 0.00 | 0.00 | 0.00 | 95 | 1013.3 |
| 20260906112713 | 74 | 207 | 1.0 | 3.0 | 0.00 | 0.00 | 0.00 | 95 | 1013.0 |
| 20260906112210 | 74 | 192 | 2.0 | 2.0 | 0.00 | 0.00 | 0.00 | 95 | 1013.0 |
| 20260906111709 | 74 | 220 | 0.0 | 1.0 | 0.00 | 0.00 | 0.00 | 95 | 1013.0 |
| 20260906111204 | 74 | 221 | 0.0 | 2.0 | 0.00 | 0.00 | 0.00 | 95 | 1012.7 |
| 20260906110659 | 74 | 220 | 1.0 | 2.0 | 0.00 | 0.00 | 0.00 | 95 | 1013.0 |
| 20260906110154 | 74 | 225 | 1.0 | 2.0 | 0.00 | 0.00 | 0.00 | 95 | 1012.8 |
| 20260906105648 | 74 | 213 | 1.0 | 3.0 | 0.00 | 0.00 | 0.00 | 95 | 1012.8 |
| 20260906105144 | 74 | 215 | 0.0 | 1.0 | 0.00 | 0.00 | 0.00 | 94 | 1012.7 |
| 20260906104643 | 74 | 224 | 0.0 | 0.0 | 0.00 | 0.00 | 0.00 | 94 | 1012.5 |
| 20260906104137 | 74 | 220 | 0.0 | 0.0 | 0.00 | 0.00 | 0.00 | 94 | 1012.3 |
| 20260906103635 | 74 | 216 | 0.0 | 0.0 | 0.00 | 0.00 | 0.00 | 95 | 1012.4 |
| 20260906103130 | 74 | 223 | 0.0 | 0.0 | 0.00 | 0.00 | 0.00 | 95 | 1012.4 |
| 20260906102625 | 74 | 221 | 0.0 | 0.0 | 0.00 | 0.00 | 0.00 | 95 | 1012.5 |
| 20260906102120 | 74 | 219 | 0.0 | 0.0 | 0.00 | 0.00 | 0.00 | 94 | 1012.4 |
| 20260906101615 | 74 | 226 | 0.0 | 0.0 | 0.00 | 0.00 | 0.00 | 94 | 1012.5 |
| 20260906101115 | 74 | 225 | 0.0 | 0.0 | 0.00 | 0.00 | 0.00 | 94 | 1012.7 |
| 20260906100610 | 74 | 226 | 0.0 | 0.0 | 0.00 | 0.00 | 0.00 | 94 | 1012.3 |
| 20260906100110 | 75 | 223 | 0.0 | 0.0 | 0.00 | 0.00 | 0.00 | 94 | 1012.8 |
| 20260906095610 | 74 | 221 | 0.0 | 0.0 | 0.00 | 0.00 | 0.00 | 93 | 1012.7 |
| 20260906095106 | 75 | 225 | 0.0 | 0.0 | 0.00 | 0.00 | 0.00 | 93 | 1012.7 |
| 20260906094604 | 75 | 225 | 0.0 | 0.0 | 0.00 | 0.00 | 0.00 | 93 | 1012.9 |
| 20260906094100 | 75 | 225 | 0.0 | 0.0 | 0.00 | 0.00 | 0.00 | 92 | 1012.9 |
| 20260906093556 | 75 | 225 | 0.0 | 0.0 | 0.00 | 0.00 | 0.00 | 92 | 1013.1 |
| 20260906093051 | 76 | 221 | 0.0 | 0.0 | 0.00 | 0.00 | 0.00 | 91 | 1013.0 |
| 20260906092546 | 76 | 222 | 0.0 | 0.0 | 0.00 | 0.00 | 0.00 | 90 | 1013.0 |
| 20260906092041 | 76 | 221 | 0.0 | 0.0 | 0.00 | 0.00 | 0.00 | 90 | 1013.4 |
| 20260906091537 | 76 | 218 | 0.0 | 1.0 | 0.00 | 0.00 | 0.00 | 90 | 1013.2 |
| 20260906091033 | 75 | 218 | 0.0 | 1.0 | 0.00 | 0.00 | 0.00 | 91 | 1013.3 |
| 20260906090528 | 75 | 206 | 2.0 | 2.0 | 0.00 | 0.00 | 0.00 | 91 | 1013.3 |
| 20260906090023 | 75 | 219 | 0.0 | 0.0 | 0.00 | 0.00 | 0.00 | 91 | 1013.4 |
| 20260906085521 | 75 | 221 | 0.0 | 0.0 | 0.00 | 0.00 | 0.00 | 92 | 1013.6 |
| 20260906085021 | 75 | 222 | 0.0 | 0.0 | 0.00 | 0.00 | 0.00 | 92 | 1013.5 |
| 20260906084516 | 75 | 217 | 0.0 | 0.0 | 0.00 | 0.00 | 0.00 | 91 | 1013.7 |
| 20260906084015 | 76 | 220 | 0.0 | 0.0 | 0.00 | 0.00 | 0.00 | 92 | 1013.6 |
| 20260906083511 | 76 | 223 | 0.0 | 0.0 | 0.00 | 0.00 | 0.00 | 90 | 1013.4 |
| 20260906083010 | 76 | 224 | 0.0 | 0.0 | 0.00 | 0.00 | 0.00 | 90 | 1013.5 |
| 20260906082505 | 76 | 225 | 0.0 | 0.0 | 0.00 | 0.00 | 0.00 | 90 | 1013.1 |
| 20260906082001 | 77 | 224 | 0.0 | 1.0 | 0.00 | 0.00 | 0.00 | 90 | 1013.3 |
| 20260906081456 | 77 | 221 | 0.0 | 0.0 | 0.00 | 0.00 | 0.00 | 89 | 1013.2 |
| 20260906080952 | 77 | 219 | 0.0 | 0.0 | 0.00 | 0.00 | 0.00 | 88 | 1013.2 |
| 20260906080448 | 77 | 224 | 0.0 | 0.0 | 0.00 | 0.00 | 0.00 | 88 | 1013.1 |
| 20260906075943 | 77 | 223 | 0.0 | 1.0 | 0.00 | 0.00 | 0.00 | 88 | 1013.1 |
| 20260906075437 | 77 | 203 | 2.0 | 6.0 | 0.00 | 0.00 | 0.00 | 88 | 1012.7 |
| 20260906074932 | 76 | 213 | 2.0 | 3.0 | 0.00 | 0.00 | 0.00 | 89 | 1012.5 |
| 20260906074427 | 76 | 228 | 0.0 | 1.0 | 0.00 | 0.00 | 0.00 | 90 | 1012.7 |
| 20260906073926 | 75 | 220 | 0.0 | 2.0 | 0.00 | 0.00 | 0.00 | 91 | 1012.7 |
| 20260906073421 | 75 | 218 | 0.0 | 0.0 | 0.00 | 0.00 | 0.00 | 94 | 1012.5 |
| 20260906072917 | 75 | 226 | 0.0 | 0.0 | 0.00 | 0.00 | 0.00 | 94 | 1012.3 |
| 20260906072412 | 75 | 221 | 0.0 | 1.0 | 0.00 | 0.00 | 0.00 | 94 | 1012.8 |
| 20260906071908 | 74 | 220 | 0.0 | 1.0 | 0.00 | 0.00 | 0.00 | 96 | 1012.7 |
| 20260906071404 | 74 | 225 | 0.0 | 1.0 | 0.00 | 0.00 | 0.00 | 97 | 1012.7 |
| 20260906070859 | 74 | 213 | 1.0 | 1.0 | 0.00 | 0.00 | 0.00 | 97 | 1012.9 |
| 20260906070355 | 74 | 209 | 1.0 | 2.0 | 0.00 | 0.00 | 0.00 | 98 | 1013.0 |
| 20260906065851 | 74 | 217 | 1.0 | 2.0 | 0.00 | 0.00 | 0.00 | 98 | 1013.4 |
| 20260906065344 | 74 | 224 | 0.0 | 1.0 | 0.00 | 0.00 | 0.00 | 98 | 1013.5 |
| 20260906064840 | 74 | 221 | 0.0 | 1.0 | 0.00 | 0.00 | 0.00 | 98 | 1013.9 |
| 20260906064337 | 74 | 223 | 0.0 | 0.0 | 0.00 | 0.00 | 0.00 | 98 | 1013.7 |
| 20260906063836 | 74 | 221 | 0.0 | 0.0 | 0.00 | 0.00 | 0.00 | 98 | 1013.6 |
| 20260906063332 | 74 | 221 | 0.0 | 0.0 | 0.00 | 0.00 | 0.00 | 99 | 1013.5 |
| 20260906062827 | 73 | 211 | 0.0 | 0.0 | 0.00 | 0.00 | 0.00 | 99 | 1013.5 |
| 20260906062326 | 73 | 214 | 0.0 | 0.0 | 0.00 | 0.00 | 0.00 | 99 | 1013.7 |
| 20260906061822 | 73 | 215 | 0.0 | 0.0 | 0.00 | 0.00 | 0.00 | 99 | 1013.6 |
| 20260906061318 | 73 | 221 | 0.0 | 0.0 | 0.00 | 0.00 | 0.00 | 99 | 1013.6 |
| 20260906060813 | 73 | 221 | 0.0 | 0.0 | 0.00 | 0.00 | 0.00 | 99 | 1013.4 |
| 20260906060311 | 73 | 221 | 0.0 | 0.0 | 0.00 | 0.00 | 0.00 | 99 | 1013.3 |
| 20260906055806 | 73 | 219 | 0.0 | 0.0 | 0.00 | 0.00 | 0.00 | 99 | 1013.2 |
| 20260906055301 | 73 | 224 | 0.0 | 0.0 | 0.00 | 0.00 | 0.00 | 99 | 1013.0 |
| 20260906054756 | 73 | 225 | 0.0 | 0.0 | 0.00 | 0.00 | 0.00 | 99 | 1012.9 |
| 20260906054252 | 73 | 224 | 0.0 | 0.0 | 0.00 | 0.00 | 0.00 | 99 | 1012.9 |
| 20260906053748 | 73 | 223 | 0.0 | 0.0 | 0.00 | 0.00 | 0.00 | 99 | 1013.0 |
| 20260906053244 | 73 | 225 | 0.0 | 0.0 | 0.00 | 0.00 | 0.00 | 99 | 1013.1 |
| 20260906052738 | 73 | 225 | 0.0 | 0.0 | 0.00 | 0.00 | 0.00 | 99 | 1013.1 |
| 20260906052235 | 73 | 224 | 0.0 | 0.0 | 0.00 | 0.00 | 0.00 | 99 | 1013.0 |
| 20260906051732 | 73 | 225 | 0.0 | 0.0 | 0.00 | 0.00 | 0.00 | 99 | 1013.1 |
| 20260906051231 | 73 | 225 | 0.0 | 0.0 | 0.00 | 0.00 | 0.00 | 99 | 1012.9 |
| 20260906050726 | 73 | 223 | 0.0 | 0.0 | 0.00 | 0.00 | 0.00 | 98 | 1013.2 |
| 20260906050221 | 73 | 223 | 0.0 | 0.0 | 0.00 | 0.00 | 0.00 | 98 | 1013.2 |
| 20260906045720 | 73 | 223 | 0.0 | 0.0 | 0.00 | 0.00 | 0.00 | 98 | 1013.2 |
| 20260906045215 | 74 | 225 | 0.0 | 0.0 | 0.00 | 0.00 | 0.00 | 98 | 1013.3 |
| 20260906044706 | 74 | 223 | 0.0 | 0.0 | 0.00 | 0.00 | 0.00 | 98 | 1013.5 |
| 20260906044200 | 74 | 223 | 0.0 | 0.0 | 0.00 | 0.00 | 0.00 | 98 | 1013.3 |
| 20260906043656 | 74 | 223 | 0.0 | 0.0 | 0.00 | 0.00 | 0.00 | 98 | 1013.1 |
| 20260906043152 | 74 | 223 | 0.0 | 0.0 | 0.00 | 0.00 | 0.00 | 98 | 1013.2 |
| 20260906042651 | 74 | 226 | 0.0 | 0.0 | 0.00 | 0.00 | 0.00 | 98 | 1013.3 |
| 20260906042145 | 74 | 223 | 0.0 | 0.0 | 0.00 | 0.00 | 0.00 | 98 | 1013.3 |
| 20260906041641 | 74 | 222 | 0.0 | 0.0 | 0.00 | 0.00 | 0.00 | 98 | 1013.4 |
| 20260906041136 | 74 | 223 | 0.0 | 0.0 | 0.00 | 0.00 | 0.00 | 98 | 1013.3 |
| 20260906040631 | 74 | 225 | 0.0 | 0.0 | 0.00 | 0.00 | 0.00 | 98 | 1013.3 |
| 20260906040127 | 74 | 225 | 0.0 | 0.0 | 0.00 | 0.00 | 0.00 | 98 | 1013.2 |
| 20260906035622 | 75 | 225 | 0.0 | 0.0 | 0.00 | 0.02 | 0.02 | 98 | 1013.3 |
| 20260906035118 | 75 | 225 | 0.0 | 0.0 | 0.00 | 0.02 | 0.02 | 97 | 1013.5 |
| 20260906034618 | 75 | 225 | 0.0 | 0.0 | 0.00 | 0.02 | 0.02 | 97 | 1013.4 |
| 20260906034112 | 75 | 225 | 0.0 | 0.0 | 0.00 | 0.02 | 0.02 | 97 | 1013.6 |
| 20260906033608 | 75 | 225 | 0.0 | 0.0 | 0.00 | 0.02 | 0.02 | 97 | 1013.6 |
| 20260906033103 | 75 | 225 | 0.0 | 0.0 | 0.00 | 0.02 | 0.02 | 97 | 1013.4 |
| 20260906032600 | 75 | 223 | 0.0 | 0.0 | 0.00 | 0.02 | 0.02 | 97 | 1013.5 |
| 20260906032100 | 75 | 223 | 0.0 | 0.0 | 0.00 | 0.02 | 0.02 | 97 | 1013.5 |
| 20260906031555 | 75 | 224 | 0.0 | 0.0 | 0.00 | 0.02 | 0.02 | 96 | 1013.6 |
| 20260906031050 | 75 | 224 | 0.0 | 0.0 | 0.00 | 0.02 | 0.02 | 96 | 1013.4 |
| 20260906030550 | 75 | 225 | 0.0 | 0.0 | 0.00 | 0.02 | 0.02 | 96 | 1013.3 |
| 20260906030049 | 75 | 225 | 0.0 | 0.0 | 0.00 | 0.02 | 0.02 | 96 | 1013.4 |
| 20260906025544 | 75 | 226 | 0.0 | 0.0 | 0.00 | 0.02 | 0.02 | 96 | 1013.4 |
| 20260906025042 | 75 | 233 | 0.0 | 0.0 | 0.00 | 0.02 | 0.02 | 97 | 1013.5 |
| 20260906024537 | 75 | 227 | 0.0 | 0.0 | 0.00 | 0.02 | 0.02 | 97 | 1013.4 |
| 20260906024031 | 75 | 225 | 0.0 | 0.0 | 0.00 | 0.02 | 0.02 | 96 | 1013.1 |
| 20260906023527 | 75 | 225 | 0.0 | 0.0 | 0.00 | 0.02 | 0.02 | 96 | 1013.0 |
| 20260906023017 | 75 | 227 | 0.0 | 0.0 | 0.00 | 0.02 | 0.02 | 96 | 1013.1 |
| 20260906022512 | 76 | 222 | 0.0 | 0.0 | 0.00 | 0.02 | 0.02 | 96 | 1013.0 |
| 20260906022007 | 76 | 222 | 0.0 | 0.0 | 0.00 | 0.02 | 0.02 | 96 | 1013.2 |
| 20260906021503 | 76 | 225 | 0.0 | 0.0 | 0.00 | 0.02 | 0.02 | 96 | 1013.0 |
| 20260906020957 | 76 | 225 | 0.0 | 0.0 | 0.00 | 0.02 | 0.02 | 96 | 1012.9 |
| 20260906020451 | 76 | 225 | 0.0 | 0.0 | 0.00 | 0.02 | 0.02 | 96 | 1013.0 |
| 20260906015950 | 76 | 225 | 0.0 | 0.0 | 0.00 | 0.02 | 0.02 | 96 | 1013.1 |
| 20260906015449 | 76 | 225 | 0.0 | 0.0 | 0.00 | 0.02 | 0.02 | 96 | 1013.1 |
| 20260906014944 | 77 | 225 | 0.0 | 0.0 | 0.00 | 0.02 | 0.02 | 96 | 1013.0 |
| 20260906014444 | 77 | 225 | 0.0 | 0.0 | 0.00 | 0.02 | 0.02 | 96 | 1012.8 |
| 20260906013940 | 77 | 222 | 0.0 | 0.0 | 0.00 | 0.02 | 0.02 | 96 | 1012.5 |
| 20260906013435 | 77 | 222 | 0.0 | 0.0 | 0.00 | 0.02 | 0.02 | 95 | 1012.5 |
| 20260906012931 | 77 | 223 | 0.0 | 0.0 | 0.00 | 0.02 | 0.02 | 95 | 1012.4 |
| 20260906012431 | 78 | 223 | 0.0 | 0.0 | 0.00 | 0.02 | 0.02 | 94 | 1012.5 |
| 20260906011930 | 78 | 223 | 0.0 | 0.0 | 0.00 | 0.02 | 0.02 | 94 | 1012.2 |
| 20260906011425 | 78 | 223 | 0.0 | 0.0 | 0.00 | 0.02 | 0.02 | 94 | 1012.3 |
| 20260906010921 | 78 | 223 | 0.0 | 0.0 | 0.00 | 0.02 | 0.02 | 93 | 1012.4 |
| 20260906010416 | 78 | 223 | 0.0 | 0.0 | 0.00 | 0.02 | 0.02 | 93 | 1012.2 |
| 20260906005912 | 78 | 225 | 0.0 | 0.0 | 0.00 | 0.02 | 0.02 | 93 | 1012.2 |
| 20260906005412 | 79 | 226 | 0.0 | 0.0 | 0.00 | 0.02 | 0.02 | 92 | 1012.2 |
| 20260906004910 | 79 | 225 | 0.0 | 0.0 | 0.00 | 0.02 | 0.02 | 92 | 1012.0 |
| 20260906004405 | 79 | 224 | 0.0 | 0.0 | 0.00 | 0.02 | 0.02 | 93 | 1012.0 |
| 20260906003901 | 79 | 225 | 0.0 | 0.0 | 0.00 | 0.02 | 0.02 | 93 | 1012.0 |
| 20260906003356 | 79 | 225 | 0.0 | 0.0 | 0.00 | 0.02 | 0.02 | 93 | 1011.8 |
| 20260906002851 | 80 | 233 | 0.0 | 0.0 | 0.00 | 0.02 | 0.02 | 93 | 1012.0 |
| 20260906002350 | 80 | 226 | 0.0 | 0.0 | 0.00 | 0.02 | 0.02 | 92 | 1011.9 |
| 20260906001846 | 80 | 225 | 0.0 | 0.0 | 0.00 | 0.02 | 0.02 | 92 | 1011.9 |
| 20260906001342 | 80 | 229 | 0.0 | 1.0 | 0.00 | 0.02 | 0.02 | 92 | 1012.0 |
| 20260906000836 | 81 | 231 | 0.0 | 0.0 | 0.00 | 0.02 | 0.02 | 91 | 1012.0 |
| 20260906000333 | 81 | 227 | 0.0 | 0.0 | 0.00 | 0.02 | 0.02 | 90 | 1011.7 |
| 20260905235826 | 82 | 224 | 0.0 | 0.0 | 0.00 | 0.02 | 0.02 | 90 | 1011.7 |
| 20260905235326 | 82 | 227 | 0.0 | 0.0 | 0.00 | 0.02 | 0.02 | 89 | 1012.0 |
| 20260905234821 | 82 | 224 | 0.0 | 0.0 | 0.00 | 0.02 | 0.02 | 89 | 1012.1 |
| 20260905234316 | 83 | 225 | 0.0 | 0.0 | 0.00 | 0.02 | 0.02 | 88 | 1012.0 |
| 20260905233811 | 82 | 226 | 0.0 | 0.0 | 0.00 | 0.02 | 0.02 | 87 | 1012.1 |
| 20260905233306 | 83 | 224 | 0.0 | 0.0 | 0.00 | 0.02 | 0.02 | 87 | 1012.2 |
| 20260905232805 | 83 | 224 | 0.0 | 0.0 | 0.00 | 0.02 | 0.02 | 86 | 1012.3 |
| 20260905232305 | 84 | 226 | 0.0 | 0.0 | 0.00 | 0.02 | 0.02 | 86 | 1012.3 |
| 20260905231757 | 84 | 224 | 0.0 | 1.0 | 0.00 | 0.02 | 0.02 | 84 | 1012.1 |
| 20260905231252 | 84 | 226 | 0.0 | 1.0 | 0.00 | 0.02 | 0.02 | 84 | 1012.0 |
| 20260905230748 | 84 | 227 | 0.0 | 0.0 | 0.00 | 0.02 | 0.02 | 83 | 1011.8 |
| 20260905230246 | 84 | 225 | 0.0 | 0.0 | 0.00 | 0.02 | 0.02 | 82 | 1011.5 |
| 20260905225746 | 84 | 225 | 0.0 | 0.0 | 0.00 | 0.02 | 0.02 | 82 | 1011.4 |
| 20260905225241 | 85 | 228 | 0.0 | 1.0 | 0.00 | 0.02 | 0.02 | 81 | 1011.3 |
| 20260905224740 | 85 | 233 | 0.0 | 0.0 | 0.00 | 0.02 | 0.02 | 80 | 1011.7 |
| 20260905224236 | 85 | 234 | 0.0 | 0.0 | 0.00 | 0.02 | 0.02 | 78 | 1011.8 |
| 20260905223731 | 85 | 228 | 0.0 | 0.0 | 0.00 | 0.02 | 0.02 | 77 | 1011.8 |
| 20260905223228 | 85 | 227 | 0.0 | 0.0 | 0.00 | 0.02 | 0.02 | 75 | 1011.6 |
| 20260905222724 | 85 | 228 | 0.0 | 0.0 | 0.00 | 0.02 | 0.02 | 75 | 1011.8 |
| 20260905222223 | 86 | 225 | 0.0 | 0.0 | 0.00 | 0.02 | 0.02 | 77 | 1011.6 |
| 20260905221719 | 86 | 225 | 0.0 | 0.0 | 0.00 | 0.02 | 0.02 | 72 | 1011.8 |
| 20260905221216 | 86 | 220 | 0.0 | 1.0 | 0.00 | 0.02 | 0.02 | 69 | 1011.7 |
| 20260905220711 | 87 | 220 | 0.0 | 0.0 | 0.00 | 0.02 | 0.02 | 74 | 1011.9 |
| 20260905220207 | 88 | 225 | 0.0 | 0.0 | 0.00 | 0.02 | 0.02 | 68 | 1012.2 |
| 20260905215706 | 88 | 224 | 0.0 | 1.0 | 0.00 | 0.02 | 0.02 | 63 | 1012.1 |
| 20260905215202 | 88 | 225 | 1.0 | 1.0 | 0.00 | 0.02 | 0.02 | 65 | 1012.5 |
| 20260905214658 | 88 | 228 | 0.0 | 0.0 | 0.00 | 0.02 | 0.02 | 67 | 1012.3 |
| 20260905214153 | 88 | 227 | 0.0 | 0.0 | 0.00 | 0.02 | 0.02 | 69 | 1012.1 |
| 20260905213648 | 88 | 227 | 0.0 | 0.0 | 0.00 | 0.02 | 0.02 | 71 | 1012.4 |
| 20260905213144 | 87 | 227 | 0.0 | 0.0 | 0.00 | 0.02 | 0.02 | 72 | 1012.5 |
| 20260905212639 | 87 | 226 | 0.0 | 0.0 | 0.00 | 0.02 | 0.02 | 73 | 1012.5 |
| 20260905212138 | 87 | 234 | 1.0 | 1.0 | 0.00 | 0.02 | 0.02 | 74 | 1012.7 |
| 20260905211633 | 86 | 229 | 1.0 | 1.0 | 0.00 | 0.02 | 0.02 | 75 | 1012.5 |
| 20260905211128 | 85 | 234 | 2.0 | 2.0 | 0.00 | 0.02 | 0.02 | 76 | 1012.5 |
| 20260905210625 | 85 | 237 | 1.0 | 2.0 | 0.00 | 0.02 | 0.02 | 77 | 1012.4 |
| 20260905210125 | 86 | 241 | 1.0 | 2.0 | 0.00 | 0.02 | 0.02 | 77 | 1012.5 |
| 20260905205619 | 85 | 244 | 1.0 | 2.0 | 0.00 | 0.02 | 0.02 | 80 | 1012.5 |
| 20260905205118 | 84 | 226 | 1.0 | 2.0 | 0.00 | 0.02 | 0.02 | 81 | 1012.5 |
| 20260905204618 | 84 | 235 | 1.0 | 2.0 | 0.00 | 0.02 | 0.02 | 81 | 1012.4 |
| 20260905204114 | 84 | 240 | 0.0 | 1.0 | 0.00 | 0.02 | 0.02 | 83 | 1012.4 |
| 20260905203614 | 84 | 173 | 2.0 | 2.0 | 0.00 | 0.02 | 0.02 | 82 | 1012.3 |
| 20260905203109 | 84 | 230 | 0.0 | 2.0 | 0.00 | 0.02 | 0.02 | 80 | 1012.5 |
| 20260905202604 | 85 | 259 | 2.0 | 3.0 | 0.00 | 0.02 | 0.02 | 78 | 1012.2 |
| 20260905202059 | 88 | 252 | 2.0 | 5.0 | 0.00 | 0.02 | 0.02 | 74 | 1012.3 |
| 20260905201555 | 92 | 250 | 3.0 | 5.0 | 0.00 | 0.02 | 0.02 | 66 | 1012.3 |
| 20260905201054 | 92 | 210 | 1.0 | 3.0 | 0.00 | 0.02 | 0.02 | 66 | 1012.2 |
| 20260905200550 | 91 | 209 | 1.0 | 3.0 | 0.00 | 0.02 | 0.02 | 69 | 1012.1 |
| 20260905200044 | 90 | 209 | 2.0 | 2.0 | 0.00 | 0.02 | 0.02 | 71 | 1012.2 |
| 20260905195544 | 88 | 222 | 0.0 | 0.0 | 0.00 | 0.02 | 0.02 | 73 | 1012.3 |
| 20260905195040 | 87 | 220 | 1.0 | 2.0 | 0.00 | 0.02 | 0.02 | 75 | 1012.4 |
| 20260905194539 | 87 | 218 | 0.0 | 1.0 | 0.00 | 0.02 | 0.02 | 73 | 1012.7 |
| 20260905194038 | 86 | 218 | 0.0 | 1.0 | 0.00 | 0.02 | 0.02 | 82 | 1012.7 |
| 20260905193533 | 84 | 220 | 0.0 | 0.0 | 0.00 | 0.02 | 0.02 | 78 | 1012.5 |
| 20260905193029 | 82 | 218 | 0.0 | 0.0 | 0.00 | 0.02 | 0.02 | 81 | 1012.7 |
| 20260905192524 | 81 | 207 | 1.0 | 1.0 | 0.00 | 0.02 | 0.02 | 87 | 1012.5 |
| 20260905192021 | 81 | 217 | 0.0 | 0.0 | 0.00 | 0.02 | 0.02 | 96 | 1012.8 |
| 20260905191519 | 80 | 226 | 0.0 | 0.0 | 0.00 | 0.02 | 0.02 | 95 | 1012.9 |
| 20260905191018 | 80 | 218 | 0.0 | 0.0 | 0.00 | 0.02 | 0.02 | 96 | 1013.2 |
| 20260905190516 | 80 | 224 | 0.0 | 0.0 | 0.00 | 0.02 | 0.02 | 97 | 1013.2 |